Regional Weather Roundup
Issued by NWS Northern Indiana

Home | Current Version | Previous Version | Text Only | Print | Product List | Glossary Off
Versions: 1 2 3 4 5 6 7 8 9 10 11 12 13 14 15 16 17 18 19 20 21 22 23 24 25 26 27 28 29 30 31 32 33 34 35 36 37 38 39 40 41 42 43 44 45 46 47 48 49 50

000
ASUS43 KIWX 101810
RWRIWX

KIWX WEATHER ROUNDUP
NATIONAL WEATHER SERVICE NORTHERN INDIANA
100 PM EST SUN DEC 10 2017

NOTE: "FAIR" INDICATES FEW OR NO CLOUDS BELOW 12,000 FEET WITH NO
SIGNIFICANT WEATHER AND/OR OBSTRUCTIONS TO VISIBILITY.

* THESE STATIONS ARE NOT UNDER NWS QUALITY CONTROL. THEY ALSO MAY NOT
  REPORT WEATHER SUCH AS PRECIPITATION OR FOG.

INZ001>027-101900-
NORTHERN INDIANA

CITY           SKY/WX    TMP DP  RH WIND       PRES   REMARKS
GARY*          PTSUNNY   36  19  51 SW17G29   29.89F
VALPARAISO     PTSUNNY   33  22  63 SW14      29.89F WCI  23
6HR MIN TEMP:  21; 6HR MAX TEMP:  33;

MICHIGAN CITY* CLOUDY    32  19  59 SW17G23   29.89F WCI  21
LAPORTE*       SUNNY     29  20  67 SW13G21   29.89F WCI  19
6HR MIN TEMP:  19; 6HR MAX TEMP:  29;

KNOX*          SUNNY     32  21  64 SW14      29.89F WCI  22
SOUTH BEND     SUNNY     27  20  75 SW15      29.89F WCI  15
6HR MIN TEMP:  17; 6HR MAX TEMP:  27;

ELKHART*       SUNNY     28  18  64 SW10      29.89F WCI  19
GOSHEN         MOSUNNY   27  18  69 SW14      29.89F WCI  16
6HR MIN TEMP:  18; 6HR MAX TEMP:  27;

MONTICELLO*    SUNNY     33  17  53 SW14G21   29.91F WCI  23
6HR MIN TEMP:  21; 6HR MAX TEMP:  33;

LOGANSPORT*    SUNNY     32  21  64 SW18      29.91F WCI  20
ROCHESTER*     SUNNY     32  21  64 SW9       29.90F WCI  24
WARSAW*        SUNNY     28  19  69 SW9G18    29.90F WCI  20
AUBURN*        CLOUDY    30  19  64 SW9       29.92F WCI  22
FORT WAYNE     MOSUNNY   29  21  72 SW16      29.92F WCI  17
6HR MIN TEMP:  19; 6HR MAX TEMP:  29;

HUNTINGTON*    SUNNY     30  18  61 SW12G20   29.92F WCI  20
6HR MIN TEMP:  19; 6HR MAX TEMP:  30;

PERU/GRISSOM   SUNNY     32  20  61 SW20      29.90F WCI  20
6HR MIN TEMP:  21; 6HR MAX TEMP:  32;

MARION*        MOSUNNY   29  20  69 SW15      29.94F WCI  18
6HR MIN TEMP:  15; 6HR MAX TEMP:  63;


$$
INZ028>050-101900-
CENTRAL INDIANA

CITY           SKY/WX    TMP DP  RH WIND       PRES   REMARKS
LAFAYETTE      CLOUDY    35  20  54 SW18G25   29.92F WCI  24
6HR MIN TEMP:  21; 6HR MAX TEMP:  35;

KOKOMO*        SUNNY     34  19  54 S20G25    29.92F WCI  23
6HR MIN TEMP:  20; 6HR MAX TEMP:  34;

MUNCIE*        CLOUDY    30  18  60 SW15G24   29.94F WCI  19
6HR MIN TEMP:  21; 6HR MAX TEMP:  30;

INDIANAPOLIS   CLOUDY    33  17  51 SW18      29.97F WCI  22
6HR MIN TEMP:  20; 6HR MAX TEMP:  33;


$$
MIZ043>046-050>051-056>058-064>065-071>073-077>080-101900-
SOUTHWEST LOWER MICHIGAN

CITY           SKY/WX    TMP DP  RH WIND       PRES   REMARKS
BATTLE CREEK   CLOUDY    24  17  74 SW16      29.87F WCI  11
6HR MIN TEMP:  21; 6HR MAX TEMP:  25;

BENTON HARBOR  CLOUDY    28  18  66 S8        29.87F WCI  20
6HR MIN TEMP:  22; 6HR MAX TEMP:  28;

COLDWATER*     CLOUDY    27  18  69 SW13G20   29.88F WCI  16
HILLSDALE*     CLOUDY    27  16  63 SW7       29.87F WCI  19
HOLLAND        CLOUDY    26  20  77 S14       29.84F WCI  14
6HR MIN TEMP:  26; 6HR MAX TEMP:  31; 6HR PCP: TRACE;

GRAND RAPIDS   CLOUDY    25  22  88 S15       29.84F WCI  13
6HR MIN TEMP:  24; 6HR MAX TEMP:  26;

KALAMAZOO      CLOUDY    26  17  68 S14       29.88F WCI  14
6HR MIN TEMP:  22; 6HR MAX TEMP:  26;

STURGIS*       CLOUDY    25  18  73 SW14G22   29.87F WCI  14
6HR MIN TEMP:  19; 6HR MAX TEMP:  25;

THREE RIVERS*  CLOUDY    28  19  70 SW10G17   29.89F WCI  18
6HR MIN TEMP:  21; 6HR MAX TEMP:  28;


$$
OHZ001>008-015>018-024>025-101900-
NORTHWEST OHIO

CITY           SKY/WX    TMP DP  RH WIND       PRES   REMARKS
WAUSEON*       CLOUDY    27  19  74 SW14G22   29.92F WCI  15
DEFIANCE       CLOUDY    27  17  66 SW17      29.94F WCI  14
6HR MIN TEMP:  20; 6HR MAX TEMP:  27;

FINDLAY        CLOUDY    29  16  58 SW21G28   29.94F WCI  16
6HR MIN TEMP:  23; 6HR MAX TEMP:  29;

TOLEDO EXPRESS CLOUDY    26  19  74 SW13G23   29.93F WCI  15
6HR MIN TEMP:  22; 6HR MAX TEMP:  26;

TOLEDO METCALF CLOUDY    27  17  66 SW20G29   29.95F WCI  13
6HR MIN TEMP:  23; 6HR MAX TEMP:  27;

LIMA           CLOUDY    27  18  69 S18G25    29.94F WCI  14
6HR MIN TEMP:  20; 6HR MAX TEMP:  27;


$$
AND FOR LAKE MICHIGAN COASTAL AND OPEN LAKE BUOY OBSERVATIONS

STATION/POSITION TEMP    WIND        PRES    VSBY  WAVE
                 AIR SEA DIR/SP/G                  HT/PER
                 (F)     (DEG/KT/KT) (MB)    (MI)  (FT/S)
CALUMET HARBOR    33     230/  9/ 14 1011.2F
MICHIGAN CITY     30     200/ 13/ 15   N/A
BURNS HARBOR      33     240/ 16/ 21 1012.5F
SAINT JOSEPH      32     240/ 19/ 23 1011.5

$$
&&




USA.gov is the U.S. government's official web portal to all federal, state and local government web resources and services.